Home > Weather > York > Past weeks

Flag for United Kingdom Past Weather in York, England, United Kingdom — Yesterday and Last 2 Weeks

Now
50 °F

Passing clouds.


Feels Like: 48 °F
Forecast: 45 / 60 °F
Wind: 6 mph from Northeast

Location: Linton-On-Ouse

Current Time: May 26, 2016 at 11:36:10 PM

Latest Report: May 26, 2016 at 10:50 PM


Visibility: 6 mi

Pressure: 30.04 "Hg

Humidity: 94%

Dew Point: 48 °F

Location of YorkLocation

Past Weather in York — Graph

°F

York Temperature Yesterday

Maximum temperature yesterday: 52 °F (at 11:50 AM)
Minimum temperature yesterday: 48 °F (at 12:50 AM)
Average temperature yesterday: 49 °F

High & Low Weather Summary for the Past Weeks

 TemperatureHumidityPressure
High68 °F (May 12, 12:50 PM)100% (May 24, 3:50 AM)30.24 "Hg (May 24, 3:50 AM)
Low36 °F (May 15, 3:50 AM)43% (May 17, 4:50 PM)29.56 "Hg (May 18, 6:50 AM)
Average53 °F74%29.93 "Hg
* Reported May 11 9:50 PM — May 26 9:50 PM, York, Weather by CustomWeather, © 2016

Note: Actual official high and low records may vary slightly from our data, if they occured in-between our weather recording intervals... More about our weather records

Advertising

York Weather History for the Previous 24 Hours

Scroll right to see more
 ConditionsComfort  
Time TempWeatherWind HumidityBarometerVisibility
9:50 PM
Thu, May 26
54 °FPartly sunny.7 mph88%30.04 "HgN/A
8:50 PM55 °FBroken clouds.8 mph82%30.04 "HgN/A
7:50 PM59 °FBroken clouds.3 mph72%30.01 "HgN/A
6:50 PM59 °FPartly sunny.5 mph72%30.01 "HgN/A
5:50 PM59 °FPartly sunny.6 mph72%30.01 "HgN/A
4:50 PM57 °FPartly sunny.6 mph77%30.01 "HgN/A
3:50 PM57 °FMostly cloudy.6 mph82%30.01 "HgN/A
2:50 PM55 °FLight rain. Mostly cloudy.6 mph88%30.01 "HgN/A
1:50 PM55 °FMostly cloudy.3 mph88%29.98 "HgN/A
12:50 PM55 °FDrizzle. Mostly cloudy.5 mph88%29.98 "Hg3 mi
11:50 AM55 °FLight rain. Mostly cloudy.6 mph82%29.98 "HgN/A
10:50 AM55 °FMostly cloudy.6 mph88%29.98 "HgN/A
9:50 AM54 °FMostly cloudy.7 mph88%29.98 "HgN/A
8:50 AM54 °FDrizzle. Mostly cloudy.7 mph94%29.98 "Hg4 mi
7:50 AM52 °FDrizzle. Mostly cloudy.6 mph94%29.98 "Hg2 mi
6:50 AM52 °FDrizzle. Low clouds.6 mph94%29.98 "Hg1 mi
5:50 AM50 °FLow clouds.7 mph100%29.95 "HgN/A
4:50 AM50 °FOvercast.7 mph94%29.95 "HgN/A
3:50 AM50 °FOvercast.8 mph94%29.95 "HgN/A
2:50 AM50 °FOvercast.9 mph94%29.95 "HgN/A
1:50 AM48 °FOvercast.9 mph100%29.98 "HgN/A
12:50 AM48 °FPassing clouds.10 mph100%29.98 "HgN/A
11:50 PM
Wed, May 25
48 °FPassing clouds.10 mph94%30.01 "Hg4 mi
Weather by CustomWeather, © 2016

See weather overviewHow to use our weather pages